Wind_Speed
4 4 4 4 5 5 6 6 7 7 7 7 6 6 6 5 5 5 5 4 4 3 3 4 5 5 5 5 4 3 3 3 2 2 2 2 2 2 3 3 3 3 4
3 3 3 3 4 4 5 5 6 7 6 6 6 5 5 4 4 4 4 3 3 3 3 3 4 4 4 4 4 3 3 2 1 1 1 2 3 4 4 4 5 5 5
3 2 3 3 3 3 4 4 5 5 6 6 5 5 4 4 3 3 3 2 2 2 2 2 3 3 4 4 4 4 3 3 3 2 2 3 4 5 5 5 6 6 7
4 3 3 2 2 3 3 4 4 5 5 5 4 4 4 4 3 3 3 2 2 2 1 2 2 3 3 3 3 3 4 4 4 4 4 4 5 6 6 6 6 7 7
6 5 4 3 2 3 3 3 4 4 5 5 5 4 4 3 3 3 3 2 2 2 2 2 2 3 3 3 3 4 4 4 4 4 4 5 6 6 7 7 7 8 8
7 6 5 4 4 4 3 4 4 4 5 6 5 5 5 4 4 4 3 3 3 3 3 3 3 3 3 4 4 4 5 5 4 5 5 6 7 7 8 8 8 9 9
9 8 7 7 6 6 5 5 5 6 6 6 6 6 6 5 5 5 5 5 5 4 4 4 4 4 5 5 5 5 6 6 6 6 7 7 8 9 9 9 10 10 11
10 9 8 8 7 7 7 7 7 7 7 6 7 6 6 6 6 6 6 7 6 5 5 5 5 5 6 6 6 6 7 7 7 7 8 9 9 10 11 11 12 12 13
11 10 9 9 8 8 8 8 8 8 8 7 7 7 7 7 7 8 8 7 7 6 6 6 6 6 6 7 7 7 7 8 8 9 9 10 11 11 12 12 13 13 14
12 12 11 10 9 9 9 9 9 9 9 8 8 8 8 8 8 9 9 8 8 8 8 8 8 8 8 8 8 8 8 9 9 10 11 11 12 12 13 13 13 14 15
14 13 12 11 11 10 11 11 10 9 9 9 9 9 9 10 10 10 10 10 10 10 10 10 9 9 9 9 9 9 9 10 11 12 13 13 13 14 14 14 15 15 15
16 15 14 13 13 12 12 12 11 11 11 11 11 11 11 12 12 11 11 11 11 11 11 11 11 10 10 9 10 10 11 11 12 13 14 14 15 15 16 16 16 15 15
17 17 16 15 14 14 13 13 13 13 13 13 13 13 13 13 13 13 13 13 12 12 13 12 12 11 11 11 11 12 12 12 13 14 15 15 16 17 17 17 17 17 17
17 17 16 16 16 16 15 15 15 15 15 15 14 14 14 14 14 14 14 14 13 13 13 13 13 12 12 13 13 13 13 13 14 15 16 16 17 18 18 18 18 18 18
18 18 18 17 17 17 17 17 16 16 17 17 16 16 16 15 15 14 14 15 14 14 13 13 13 13 13 14 14 14 15 15 16 17 17 18 18 18 19 18 18 19 19
20 20 20 20 19 19 19 18 18 18 18 18 18 17 17 16 16 15 15 15 15 14 14 14 14 14 14 15 16 16 17 17 18 18 18 18 18 19 19 19 19 20 20
23 23 22 21 20 20 20 20 20 21 21 20 20 19 18 17 17 17 16 16 15 14 15 16 16 16 16 16 17 18 18 19 19 19 19 19 19 20 20 20 21 22 22
25 25 23 23 22 22 22 22 22 23 23 22 22 21 20 19 18 18 17 17 17 16 16 17 17 17 18 18 18 19 19 20 20 21 21 20 20 21 21 21 22 23 23
26 26 26 25 25 24 24 24 24 24 24 24 23 23 22 20 20 20 20 19 18 18 18 18 18 19 20 20 20 21 21 21 21 22 22 22 21 22 22 23 24 24 24
27 27 27 27 26 26 25 26 25 25 25 25 25 24 23 23 22 22 21 20 20 20 20 20 20 20 21 21 22 23 23 23 23 23 24 23 23 23 24 25 25 25 25
29 29 29 28 28 27 27 27 27 27 27 26 26 25 25 24 24 23 23 23 22 22 22 22 23 23 23 23 23 23 24 24 25 25 24 24 24 25 26 26 26 26 27
31 31 31 30 29 29 28 28 28 28 28 27 27 27 26 26 26 26 25 25 24 24 24 24 25 25 26 25 25 25 26 26 27 27 27 27 26 26 27 28 27 27 28
32 32 32 32 31 30 30 30 30 30 29 29 28 28 28 28 28 28 27 27 26 26 27 26 27 27 27 27 27 27 28 28 29 29 29 29 29 28 29 29 29 29 29
32 32 32 32 32 32 32 32 32 31 31 31 30 30 29 29 29 29 29 29 28 28 28 28 28 28 28 28 29 29 30 30 31 31 32 32 31 31 31 30 30 30 31
32 32 32 33 33 33 33 33 33 33 33 33 32 31 31 30 30 30 30 30 30 29 30 30 30 30 30 30 31 32 32 33 33 33 33 32 33 32 31 31 31 31 32
33 33 32 32 33 33 32 33 33 33 32 32 32 32 33 32 31 31 30 30 31 31 31 32 32 32 31 31 32 33 34 35 35 35 35 34 34 34 33 32 32 32 33
Wind_Direction
34 43 49 52 50 48 48 49 51 51 54 58 62 67 73 74 73 76 81 86 83 80 67 54 51 53 49 48 55 63 70 71 62 52 36 20 3 348 339 327 320 314 300
15 18 23 30 35 37 36 37 45 45 45 50 52 57 65 70 70 75 73 72 63 55 52 49 45 47 45 42 45 54 58 54 31 23 14 0 343 334 332 327 323 319 316
333 345 350 357 16 23 26 27 36 33 31 34 37 42 44 49 56 64 60 56 44 33 34 37 38 38 31 29 28 28 29 24 18 11 342 332 326 320 323 319 312 313 311
303 315 324 332 344 356 4 14 18 20 16 14 21 26 23 25 28 31 27 20 16 19 6 1 7 2 1 1 359 360 3 3 1 360 351 336 322 315 312 318 312 310 308
283 288 300 308 317 325 333 346 357 358 359 357 353 354 354 354 357 358 359 354 338 327 327 315 321 332 334 334 337 339 342 346 346 341 340 342 335 327 325 318 314 313 310
271 276 287 294 292 301 308 315 330 335 339 341 337 338 338 333 330 330 328 319 309 309 307 296 296 302 309 315 323 329 336 336 335 333 330 329 326 326 324 318 317 316 313
266 271 276 282 287 291 295 302 307 313 319 327 328 328 325 322 322 317 311 310 304 296 303 308 304 306 303 306 308 312 318 319 319 319 323 324 321 319 317 314 315 315 313
267 272 270 270 275 280 285 294 298 296 302 309 317 321 320 319 316 316 312 307 305 297 293 289 293 296 296 298 302 307 307 310 312 313 317 320 320 320 319 316 316 315 313
264 269 269 269 268 272 276 285 292 290 291 296 304 312 313 311 312 314 314 306 302 295 287 280 283 292 296 300 298 301 306 306 308 308 310 313 315 317 317 314 314 313 313
257 260 263 268 268 270 271 279 287 287 289 294 297 304 309 306 305 306 308 307 299 292 288 284 283 283 289 292 291 294 300 303 302 306 309 311 312 313 314 315 314 313 311
253 259 261 262 266 268 266 270 275 281 286 293 298 301 301 300 299 299 299 296 291 288 287 285 284 285 287 286 288 291 294 300 302 302 307 309 309 309 310 311 311 309 308
253 257 260 260 263 266 266 265 269 275 282 287 292 297 297 298 298 297 294 290 287 285 284 283 282 282 284 286 289 291 294 297 299 302 305 305 304 304 306 306 308 307 306
253 257 257 259 261 263 264 263 265 270 276 283 286 290 294 295 294 294 292 288 284 282 283 282 281 280 283 285 289 294 297 298 299 302 305 304 304 304 304 305 304 304 302
251 252 253 256 261 262 261 263 265 268 274 278 281 287 290 293 292 290 287 287 286 282 281 280 279 279 282 284 288 293 296 298 298 301 305 306 305 305 305 304 303 302 301
250 251 251 255 258 260 261 262 264 267 270 275 280 285 287 291 291 291 288 284 283 280 277 278 279 279 280 283 286 291 293 296 297 300 302 304 304 305 305 303 303 302 300
249 249 249 252 254 257 259 262 265 266 268 271 275 279 283 287 289 290 287 284 283 280 276 277 278 278 282 284 286 291 293 294 297 299 302 303 304 305 304 303 302 302 301
249 248 250 253 253 255 258 261 264 266 268 269 272 275 279 282 283 285 284 282 280 278 277 277 279 279 280 285 287 290 293 295 298 300 301 301 303 304 304 303 302 302 302
249 251 253 252 254 256 258 261 264 266 268 269 269 272 273 275 278 280 280 279 278 278 280 280 278 280 280 283 286 287 292 295 296 299 300 301 301 303 303 303 304 304 304
249 251 252 253 255 257 258 259 262 265 267 268 269 270 268 270 274 278 278 279 275 275 278 279 279 280 282 282 286 288 291 293 294 297 297 298 298 301 302 303 304 303 303
250 252 253 255 256 257 257 259 261 264 267 268 269 269 267 268 270 272 274 276 274 273 276 277 279 281 282 283 286 288 289 292 293 295 295 296 297 299 300 301 303 304 303
251 253 254 256 258 257 257 258 261 264 265 266 266 266 267 268 270 270 270 271 273 273 275 276 277 279 281 284 285 286 289 292 294 296 296 296 297 298 299 300 302 303 302
253 254 255 256 257 258 258 258 260 262 264 264 264 265 266 268 270 271 270 270 271 271 273 275 276 279 281 282 283 284 286 289 292 294 295 295 295 296 297 298 299 301 302
253 254 255 256 256 257 258 259 260 261 261 261 263 266 267 267 269 270 270 270 270 272 273 274 275 277 279 281 282 283 285 287 290 293 294 295 295 294 294 295 298 300 302
251 253 254 255 256 257 258 259 260 260 262 263 264 266 266 268 269 269 270 269 269 272 274 275 276 278 279 281 281 283 285 287 288 289 291 293 294 294 295 295 297 298 299
252 253 254 255 256 256 258 260 261 261 263 264 264 265 266 267 269 269 268 268 269 272 273 274 277 280 281 281 282 283 284 285 287 289 290 290 292 293 295 295 296 297 298
253 251 253 255 255 255 257 260 260 261 262 264 264 265 265 267 268 269 269 269 270 271 271 272 275 279 280 280 282 284 285 286 286 287 288 289 290 292 293 295 296 296 296
Height
5910 5909 5908 5908 5907 5906 5905 5904 5903 5902 5901 5900 5899 5898 5897 5897 5896 5895 5895 5894 5894 5893 5893 5893 5892 5891 5891 5890 5889 5888 5888 5887 5887 5887 5886 5886 5885 5885 5884 5884 5884 5883 5882
5911 5910 5909 5908 5908 5907 5906 5905 5904 5903 5902 5901 5900 5899 5898 5898 5897 5896 5896 5895 5895 5895 5894 5894 5893 5893 5892 5891 5890 5889 5889 5888 5887 5887 5886 5886 5886 5885 5884 5883 5883 5882 5881
5911 5910 5909 5909 5908 5907 5906 5906 5905 5904 5903 5902 5901 5901 5900 5899 5898 5897 5897 5896 5896 5895 5895 5894 5894 5893 5893 5892 5891 5890 5889 5889 5888 5887 5887 5886 5886 5885 5884 5883 5882 5881 5880
5910 5910 5909 5909 5908 5907 5907 5906 5905 5905 5904 5903 5902 5901 5901 5900 5899 5898 5897 5897 5896 5896 5895 5895 5894 5893 5893 5892 5891 5890 5889 5889 5888 5887 5886 5886 5885 5885 5884 5882 5881 5880 5879
5910 5909 5909 5909 5908 5907 5907 5906 5905 5905 5904 5903 5902 5902 5901 5900 5899 5898 5898 5897 5896 5896 5895 5895 5894 5893 5892 5891 5890 5890 5889 5888 5888 5887 5886 5885 5884 5884 5883 5881 5880 5879 5877
5909 5908 5908 5908 5908 5907 5907 5906 5905 5905 5904 5904 5903 5902 5901 5900 5899 5898 5898 5897 5896 5895 5895 5894 5893 5892 5892 5891 5890 5889 5888 5888 5887 5886 5886 5885 5884 5883 5882 5880 5879 5877 5876
5907 5907 5907 5907 5907 5906 5906 5906 5905 5904 5904 5903 5902 5901 5900 5899 5898 5898 5897 5896 5895 5895 5894 5893 5892 5892 5891 5890 5889 5888 5888 5887 5886 5886 5885 5884 5883 5881 5880 5878 5877 5875 5873
5905 5905 5905 5905 5905 5905 5905 5904 5904 5903 5903 5902 5901 5901 5899 5898 5898 5897 5896 5895 5894 5893 5892 5892 5891 5891 5890 5889 5888 5888 5887 5886 5885 5884 5883 5883 5881 5880 5878 5877 5875 5873 5871
5903 5903 5903 5903 5903 5903 5903 5903 5902 5902 5901 5901 5900 5899 5898 5897 5897 5896 5895 5894 5893 5892 5891 5891 5890 5889 5889 5888 5887 5886 5885 5885 5884 5883 5882 5881 5879 5878 5876 5874 5872 5871 5869
5900 5900 5901 5901 5901 5901 5901 5901 5901 5900 5900 5899 5899 5898 5897 5896 5895 5894 5893 5892 5891 5890 5890 5889 5889 5888 5887 5886 5885 5885 5884 5883 5882 5881 5879 5878 5877 5875 5874 5872 5870 5868 5866
5897 5898 5898 5898 5899 5899 5899 5898 5898 5898 5898 5897 5897 5896 5895 5894 5893 5892 5891 5890 5889 5888 5888 5887 5887 5886 5885 5884 5884 5883 5882 5881 5880 5878 5877 5876 5874 5872 5871 5869 5867 5865 5862
5893 5894 5895 5895 5896 5896 5896 5896 5896 5896 5895 5895 5895 5894 5893 5892 5891 5890 5889 5888 5887 5886 5885 5884 5884 5884 5883 5882 5881 5880 5879 5878 5877 5876 5874 5873 5871 5869 5867 5865 5863 5861 5859
5889 5890 5891 5892 5892 5892 5892 5893 5893 5893 5893 5892 5892 5891 5890 5889 5888 5887 5886 5885 5884 5883 5882 5881 5881 5881 5880 5879 5879 5878 5876 5875 5874 5872 5871 5869 5867 5865 5863 5861 5859 5857 5855
5885 5886 5887 5888 5888 5889 5889 5889 5890 5889 5889 5889 5889 5888 5887 5886 5885 5884 5883 5882 5881 5880 5879 5878 5878 5877 5877 5876 5876 5875 5873 5872 5871 5869 5867 5865 5863 5861 5859 5856 5854 5852 5850
5880 5882 5883 5884 5884 5885 5885 5885 5886 5886 5886 5885 5885 5884 5883 5882 5881 5881 5880 5878 5878 5877 5876 5875 5874 5874 5874 5873 5872 5871 5870 5869 5867 5866 5864 5861 5859 5857 5855 5852 5850 5848 5846
5875 5876 5878 5879 5880 5880 5881 5881 5881 5882 5881 5881 5880 5880 5879 5878 5878 5876 5875 5874 5873 5873 5872 5872 5872 5871 5870 5870 5869 5868 5867 5865 5863 5861 5859 5857 5855 5853 5850 5848 5846 5843 5841
5868 5869 5871 5873 5874 5875 5876 5876 5876 5877 5877 5876 5876 5875 5875 5874 5873 5872 5871 5871 5870 5869 5868 5868 5868 5867 5867 5866 5865 5864 5863 5861 5859 5857 5855 5853 5851 5848 5846 5843 5841 5838 5835
5861 5863 5864 5866 5868 5869 5870 5870 5871 5871 5871 5871 5871 5870 5870 5869 5869 5868 5867 5866 5866 5865 5864 5863 5863 5863 5862 5862 5861 5859 5858 5856 5855 5853 5850 5848 5846 5843 5841 5838 5835 5833 5830
5854 5856 5857 5859 5861 5862 5863 5864 5864 5864 5865 5865 5865 5864 5864 5864 5864 5863 5862 5862 5861 5860 5860 5859 5858 5858 5857 5857 5855 5854 5853 5851 5849 5847 5845 5843 5840 5838 5835 5833 5830 5827 5824
5846 5848 5850 5852 5853 5855 5856 5857 5857 5858 5858 5858 5858 5858 5858 5858 5858 5857 5857 5856 5855 5855 5854 5854 5853 5852 5852 5851 5849 5848 5847 5845 5844 5842 5839 5837 5835 5833 5830 5827 5824 5821 5817
5838 5840 5842 5844 5846 5847 5848 5849 5850 5851 5851 5851 5851 5851 5852 5851 5851 5851 5850 5850 5849 5849 5849 5848 5847 5847 5846 5845 5843 5842 5841 5839 5837 5835 5833 5831 5828 5826 5823 5820 5818 5814 5811
5830 5832 5834 5835 5837 5838 5840 5841 5842 5843 5843 5843 5844 5844 5844 5845 5844 5844 5843 5843 5843 5842 5842 5841 5841 5840 5839 5838 5837 5835 5834 5833 5831 5829 5826 5824 5822 5819 5816 5813 5810 5807 5804
5821 5823 5825 5826 5828 5830 5831 5833 5834 5834 5835 5835 5836 5836 5836 5837 5837 5836 5836 5835 5835 5835 5835 5834 5833 5833 5832 5831 5829 5828 5827 5825 5823 5821 5819 5817 5814 5811 5809 5806 5803 5800 5796
5812 5814 5815 5817 5819 5821 5822 5823 5824 5825 5826 5827 5827 5828 5828 5828 5828 5828 5828 5828 5827 5827 5827 5826 5825 5824 5824 5823 5821 5820 5819 5817 5815 5813 5811 5809 5806 5803 5801 5798 5795 5792 5789
5802 5804 5806 5808 5809 5811 5813 5814 5815 5816 5817 5817 5818 5818 5819 5819 5819 5819 5819 5819 5819 5819 5819 5818 5817 5816 5815 5814 5813 5811 5810 5809 5807 5804 5802 5800 5797 5795 5792 5789 5787 5784 5781
5792 5794 5796 5797 5799 5801 5802 5804 5805 5806 5807 5808 5809 5809 5810 5810 5810 5810 5811 5810 5810 5810 5809 5808 5808 5807 5806 5805 5804 5802 5801 5799 5797 5795 5793 5791 5788 5786 5783 5780 5778 5775 5772